Location: Camaret
(48.2753°N, 4.5961°W)
Time: 01:27:49
(UTC+00:00)

SL-4 R/B - Pass Details

Date: 29 October 2020
Orbit: 427 x 665 km, 51.6° (Epoch: 26 November)

Event Time Altitude Azimuth Distance (km) Brightness Sun altitude
Rises 19:06:17 0° 291° (WNW) 2,452 6.6 -20.9°
Reaches altitude 10° 19:08:21 10° 292° (WNW) 1,605 5.4 -21.2°
Enters shadow 19:11:51 84° 290° (WNW) 487 1.7 -21.8°
